Location: Unspecified
(0.0000°N, 0.0000°E)
Time: 11:58:08
(UTC+00:00)

S-56A Canister/Altair - Visible Passes

Search period start: 24 October 2014 00:00
Search period end: 03 November 2014 00:00
Orbit: 633 x 2503 km, 38.9° (Epoch: 20 October)

Date Brightness Start Highest point End Pass type
(mag) Time Alt. Az. Time Alt. Az. Time Alt. Az.
24 Oct 8.3 03:37:38 46° ENE 03:37:38 46° ENE 03:41:31 10° ESE visible
24 Oct 11.3 18:14:31 10° W 18:26:09 29° NW 18:38:05 10° NNE visible
25 Oct 9.6 03:07:34 22° E 03:07:34 22° E 03:09:26 10° ESE visible
25 Oct 8.9 05:05:03 11° W 05:08:25 19° SW 05:11:41 10° S visible
25 Oct 11.2 17:41:02 10° W 17:52:53 33° NW 18:05:35 10° NNE visible
26 Oct 8.5 04:34:56 23° WSW 04:36:22 26° SW 04:40:13 10° SSE visible
26 Oct 11.6 19:25:26 10° NW 19:29:16 11° NNW 19:33:02 10° N visible
27 Oct 8.3 04:04:46 35° SW 04:04:46 35° SW 04:08:39 10° SSE visible
27 Oct 11.6 18:49:43 10° NW 18:55:47 13° NNW 19:01:51 10° N visible
28 Oct 8.9 03:34:33 29° SSE 03:34:33 29° SSE 03:36:59 10° SSE visible
28 Oct 11.5 18:14:55 10° WNW 18:22:20 15° NNW 18:29:55 10° N visible
29 Oct 9.9 03:04:16 17° SE 03:04:16 17° SE 03:05:16 10° SE visible
